Regional Weather Roundup
Issued by NWS

Home | Current Version | Previous Version | Graphics & Text | Print | Product List | Glossary On
Versions: 1 2 3 4 5 6 7 8 9 10 11 12 13 14 15 16 17 18 19 20 21 22 23 24 25 26 27
000
ASUS45 KGTF 271610
RWRMT
MONTANA HOURLY WEATHER ROUNDUP
NATIONAL WEATHER SERVICE GREAT FALLS MT
1000 AM MDT MON APR 27 2015

NOTE: "FAIR" INDICATES FEW OR NO CLOUDS BELOW 12000 FEET WITH NO
SIGNIFICANT WEATHER AND/OR OBSTRUCTIONS TO VISIBILITY.

MTZ001>007-043-271700-
WEST OF THE DIVIDE

CITY           SKY/WX    TMP DP  RH WIND       PRES   REMARKS
KALISPELL      SUNNY     45  37  73 SE3       30.34F
MISSOULA       CLOUDY    41  37  86 CALM      30.40S
BUTTE          SUNNY     37  29  72 CALM      30.36R
$$

MTZ008-052>055-271700-
SOUTHWEST MONTANA

CITY           SKY/WX    TMP DP  RH WIND       PRES   REMARKS
BOZEMAN        CLOUDY    38  35  89 CALM      30.37F
DILLON         MOSUNNY   39  32  76 CALM      30.35S
$$

MTZ009-010-012-014-046-048-049-054-271700-
EAST SLOPES AND CENTRAL MONTANA

CITY           SKY/WX    TMP DP  RH WIND       PRES   REMARKS
CUT BANK       SUNNY     53  24  32 W14       30.22F
GREAT FALLS    SUNNY     49  33  54 S13       30.29R
HELENA         MOSUNNY   37  34  89 E3        30.36S
$$

MTZ011-013-016-021-045-047-050-051-271700-
NORTH CENTRAL MONTANA

CITY           SKY/WX    TMP DP  RH WIND       PRES   REMARKS
HAVRE          SUNNY     51  33  50 SW15      30.29S
LEWISTOWN      SUNNY     45  33  63 VRB3      30.31S
$$

MTZ017>020-022>042-056>058-061-062-271700-
EASTERN PLAINS

CITY           SKY/WX    TMP DP  RH WIND       PRES   REMARKS
BAKER          CLOUDY    41  37  86 NW12      30.34R
BILLINGS       MOSUNNY   44  35  70 W7        30.35R
GLASGOW        MOSUNNY   45  37  73 W5        30.34R
JORDAN           N/A     47  37  68 W7        30.34S
LIVINGSTON     MOSUNNY   45  32  60 NW7       30.34S
MILES CITY     CLOUDY    42  36  79 W8        30.36S
SIDNEY         CLOUDY    45  37  76 CALM      30.35R
WOLF POINT     CLOUDY    48  41  76 W8        30.35R
$$

REGIONAL REPORTS...DAKOTAS

CITY           SKY/WX    TMP DP  RH WIND       PRES   REMARKS
WILLISTON      LGT RAIN  45  38  76 NW7       30.33R
MINOT          LGT RAIN  42  39  89 NW9       30.30R FOG
DICKINSON      CLOUDY    41  38  89 NW10      30.31R
BEACH          CLOUDY    41  41 100 NW9       30.34S
CROSBY         PTSUNNY   45  45 100 W7        30.32R
WATFORD CITY   CLOUDY    41  39  93 W8        30.32R
BISMARCK       CLOUDY    49  43  80 N7        30.28R
GRAND FORKS    CLOUDY    62  45  53 VRB6      30.22S
FARGO          MOSUNNY   62  27  26 SW6       30.24S
BUFFALO SD       N/A     41  39  93 NW16      30.26R
RAPID CITY     CLOUDY    43  39  86 N26       30.29R
$$

REGIONAL REPORTS...WYOMING/IDAHO/WASHINGTON

CITY           SKY/WX    TMP DP  RH WIND       PRES   REMARKS
GILLETTE       CLOUDY    37  34  89 N9        30.34S WCI  30
SHERIDAN       CLOUDY    41  35  79 VRB3      30.35S
BUFFALO WY     CLOUDY    40  34  79 N5        30.34R
CODY           CLOUDY    39  32  75 NE5       30.34S
YELLOWSTONE LA   N/A     32  25  75 VRB3      30.33R
IDAHO FALLS    MOSUNNY   45  32  60 NE6       30.32S
SALMON         MOSUNNY   43  30  61 NW3       30.37S
BOISE          SUNNY     48  27  44 CALM      30.33R
SPOKANE        MOSUNNY   51  29  42 SE6       30.33R
$$

REGIONAL REPORTS...ALBERTA

CITY           SKY/WX    TMP DP  RH WIND       PRES   REMARKS
EDMONTON       PTSUNNY   48  30  49 SW8       30.09R
CALGARY        MOSUNNY   59  21  23 W10       30.14S
LETHBRIDGE     MOSUNNY   55  25  30 W18G30    30.17S
MEDICINE HAT   MOSUNNY   55  28  35 SW16      30.21S
$$

REGIONAL REPORTS...SASKATCHEWAN

CITY           SKY/WX    TMP DP  RH WIND       PRES   REMARKS
SWIFT CURRENT  SUNNY     48  34  57 S10       30.25S
REGINA         SUNNY     46  34  61 NW5       30.31S
SASKATOON      SUNNY     39  34  81 S7        30.28R
$$



USA.gov is the U.S. government's official web portal to all federal, state and local government web resources and services.